Location: Diebersbach
(48.5163°N, 8.0558°E)
Time: 18:00:53
(UTC+00:00)

Cosmos 1825 - Pass Details

Date: 04 November 2021
Orbit: 501 x 504 km, 82.5° (Epoch: 30 November)

Event Time Altitude Azimuth Distance (km) Brightness Sun altitude
Rises 17:36:34 0° 344° (NNW) 2,612 5.9 -15.7°
Reaches altitude 10° 17:38:45 10° 338° (NNW) 1,723 5.0 -16.1°
Maximum altitude 17:42:20 43° 266° (W) 714 3.4 -16.7°
Drops below altitude 10° 17:45:54 10° 194° (SSW) 1,710 5.1 -17.3°
Sets 17:48:04 0° 188° (S) 2,590 5.9 -17.7°
